CAPE
364 755 1225 1863 1204 694 756 454 682 356 144 3 0 451 433 530 203 413 506 445 186 200 581 1214 2032 1697 1422 2055 2192 2040 2160 2118 2734 2439 1939 1760 1707 1947 2097 1995 1922 2337 1884 1712 1717 1512 1461 1457 1571
136 1058 1061 2025 496 621 1055 844 558 124 0 0 10 107 288 417 245 554 559 407 264 188 339 643 2071 2137 2084 2196 2317 2349 1789 1967 1983 634 1717 1805 1659 1800 1686 1782 1806 1788 1880 1848 1634 1558 1548 1375 1374
471 1161 1633 667 469 826 859 769 454 164 49 236 94 9 243 344 480 452 565 389 453 320 552 1250 2628 2479 2142 2188 2220 1816 1875 1730 417 236 449 1410 1138 1318 1574 1457 1606 1640 1619 1769 1675 1414 1486 1434 1295
838 1623 1820 518 673 657 686 879 285 525 218 356 123 766 33 182 589 423 476 485 434 498 949 2280 2776 2492 1998 2011 2331 1835 1627 1450 342 154 12 8 802 763 890 1179 1325 1150 1060 1119 1315 1469 1424 1293 1316
773 894 224 535 223 333 539 531 621 633 448 407 561 768 478 546 770 445 613 577 475 711 1026 1433 2650 2563 2463 2506 2072 1841 1754 1611 1127 640 66 146 0 135 347 807 1036 888 852 754 960 1297 1234 1178 1445
271 411 527 98 87 123 362 378 649 553 492 322 802 1052 790 656 554 498 664 701 686 961 563 926 2099 2597 2654 2385 1909 2385 2096 1425 1261 1005 517 413 83 8 92 536 625 601 827 887 960 1183 1204 1356 1508
198 902 249 247 597 277 298 188 603 481 591 645 551 907 884 653 588 635 666 727 946 914 932 1120 1147 1976 2219 2488 2112 2077 1817 1622 1488 1066 752 338 190 80 0 204 415 695 800 987 944 1105 1428 1388 1239
104 243 114 326 603 466 294 183 539 627 528 408 790 878 455 596 616 734 572 623 783 796 1126 1417 1681 1731 1810 1948 2055 1888 1847 1500 1216 1013 644 342 228 244 179 411 448 868 933 1039 1023 1359 1451 1540 1487
54 218 158 297 228 324 305 576 427 761 632 452 404 741 628 493 469 759 899 998 791 1372 959 1395 1309 1634 1899 2003 2136 1839 1774 1552 1289 1229 676 371 210 421 727 902 1367 962 897 992 1275 1547 1478 1547 1440
69 356 46 43 221 449 476 437 453 560 736 538 400 470 593 726 469 734 855 1199 1060 1329 1223 1565 1465 1070 1847 1606 2276 2376 2160 1434 1518 1560 668 883 1118 790 888 1114 952 1094 1320 1422 1451 1414 1427 1591 1295
10 2 7 1 17 301 367 510 318 672 724 665 741 255 423 797 667 561 736 816 1206 1489 1214 1412 1867 2344 1465 2099 2104 1826 1883 2217 2053 1733 1334 1196 1099 351 829 1139 851 1338 1572 1304 1177 1107 1324 1281 1543
8 0 0 0 0 121 187 179 319 254 675 336 830 731 549 749 556 656 594 814 1216 1057 1463 1509 1149 1157 1723 1612 1850 1741 1600 1614 1515 1641 1722 1763 1261 1326 1413 1187 1107 1489 1385 1145 1109 848 976 816 1083
0 0 13 0 0 0 57 313 352 344 514 382 1227 1119 768 847 702 506 648 663 1208 1333 1167 1125 1816 2338 1566 2785 2466 1988 1961 1783 1899 1608 1443 1821 823 1748 1969 1502 1405 1224 971 546 605 1145 885 631 703
0 0 1 0 0 0 21 194 280 311 430 441 512 551 765 673 698 551 556 773 988 1023 966 1272 1671 2282 2396 2938 2405 2413 1054 1681 1775 1623 1750 1844 1390 1962 2678 1307 1158 1398 1300 759 1115 2292 2386 2170 2066
0 0 9 0 0 0 1 80 3 397 335 483 636 644 710 676 528 442 490 853 971 1073 1230 1225 1436 1705 2721 2669 2067 1655 2036 1189 1652 1770 2322 2246 1942 1911 1804 1133 1117 1924 682 31 1110 1278 1707 2315 1261
0 0 34 1 0 0 0 266 397 374 408 460 728 789 777 753 696 653 398 1029 1042 1045 1490 1754 1167 1367 2361 2455 1207 1974 1954 918 1769 1633 1936 1701 1480 2016 2351 1748 1679 1884 1415 1121 647 2051 1739 1702 1702
0 24 76 0 0 0 0 0 1 109 346 405 860 832 846 999 863 872 737 665 991 1482 1252 1581 1335 1379 1819 2736 2198 1980 1437 2410 2172 2197 1480 1841 839 1443 2061 2012 1931 2455 1915 1626 418 666 1190 1188 1867
14 20 0 0 0 0 0 0 0 2 101 315 171 902 1149 1022 1016 1005 975 693 1003 1393 1927 1328 1769 2054 2325 1719 2142 1275 433 2194 1689 2755 2376 1421 1127 1573 2212 2030 1848 2383 2130 1441 1267 1273 1472 1327 1837
0 0 0 0 0 0 0 0 0 0 0 108 113 225 969 1116 1283 1219 1089 1020 930 1085 1404 2317 1419 1872 1721 1952 2060 1746 582 1206 1550 1512 1896 811 1697 1531 1793 3036 2615 2511 1827 1385 1641 2014 2370 1516 1762
0 0 0 0 2 0 0 0 1 0 0 0 19 157 285 1187 1160 1578 1467 1211 1215 1607 2153 2236 2878 2300 2207 2349 2004 2225 1699 1065 591 1334 354 419 958 1483 2552 529 2095 2698 740 1397 1801 1827 1710 703 499
0 0 0 0 0 0 0 0 6 1 0 0 0 0 107 535 1358 1422 1624 1469 1366 1813 1981 2448 3017 3205 2996 3163 2169 2563 2255 2143 1139 856 198 67 464 1298 1871 1833 2238 2425 3119 1655 1459 1730 1731 380 263
0 0 0 0 0 0 0 0 114 39 2 8 8 95 127 371 878 1438 1518 1406 1430 1275 2073 2774 3010 3658 3112 3353 1172 1664 1603 1197 1161 1054 356 123 359 1219 1774 2193 2336 1682 1908 898 1781 2060 2362 1334 962
0 0 0 0 0 0 0 1 48 53 19 1 46 133 106 279 634 1250 1432 1726 1512 1803 1866 2713 3106 3766 3575 3769 2857 2566 1957 1481 1606 1922 472 255 708 1544 1400 2216 1597 1701 1321 332 1927 2011 1903 2594 1814
0 0 0 0 0 0 0 46 31 32 14 0 188 269 240 310 658 960 1655 2045 1857 1799 1642 2509 3212 3380 3236 3104 2680 2975 2226 1406 996 1649 777 688 906 1543 1426 2313 1364 2185 2370 1007 160 790 2444 2387 2111
0 0 0 0 3 9 0 17 50 0 0 1 24 404 421 461 657 948 1516 1933 2191 1962 1594 2653 3271 3567 3602 3126 3013 2836 2770 1503 793 1042 706 776 929 1479 2106 2490 2225 2328 2372 2295 1461 2440 3028 2752 2600
1 3 11 41 8 4 58 48 49 0 0 2 32 327 561 542 793 1049 1577 1856 2106 2060 2252 2656 3392 3652 3604 3296 2821 2909 2857 1573 472 802 705 914 1264 1433 1923 2362 2428 2771 2398 2580 2704 2585 2581 1252 1209
0 1 7 13 16 31 30 165 16 1 0 0 85 183 607 706 951 1115 1298 1370 2153 2071 2667 2660 3512 3814 3582 3260 3086 2929 2896 1831 828 560 673 1139 1493 1904 2095 2071 2496 2568 2874 2372 2570 2111 639 0 0
0 0 0 9 82 39 75 95 3 111 2 78 102 182 604 880 1142 1193 1348 1769 1762 1917 2644 2763 3698 3931 3626 3203 2916 2478 2585 2514 1446 638 710 1270 2610 2309 2411 2254 2415 2621 3180 3578 3519 2590 1811 44 299
28 5 0 11 15 22 29 124 27 205 14 149 326 665 717 838 1232 1424 1456 2207 2561 2420 2489 2485 3366 3727 3601 3056 2910 2659 2381 2418 2246 1798 1236 2088 2199 1279 1307 1611 2207 2639 2644 2663 2910 2471 2536 1949 2470
0 23 63 154 147 96 81 181 26 84 45 687 730 935 906 980 1347 1336 1633 1932 2318 2911 2793 2641 2883 3391 3233 2943 3319 2778 2612 2298 1923 1772 1293 2386 2112 1046 27 45 1647 2692 3028 2975 2972 2831 2433 2247 2881
CIN
-452 -264 -168 -18 -29 -85 -12 -1 -17 -32 -25 -0 -0 -3 -1 -12 -41 -36 -15 -2 -28 -49 -33 -2 -0 -0 -0 -0 -0 -0 -0 -0 -0 -0 -0 -0 -0 -0 -0 -0 -0 -0 -0 -0 -0 -2 -6 -5 -6
-322 -95 -72 -5 -100 -27 -13 -6 -8 -13 -0 -0 -2 -68 -16 -3 -20 -11 -7 -2 -21 -45 -47 -32 -0 -0 -0 -0 -0 -0 -0 -0 -0 -24 -1 -0 -0 -0 -1 -0 -0 -0 -0 -0 -0 -0 -0 -9 -11
-286 -76 -13 -107 -92 -16 -9 -13 -6 -6 -43 -11 -8 -8 -12 -4 -0 -9 -0 -4 -6 -28 -10 -20 -0 -0 -0 -0 -0 -1 -0 -0 -25 -27 -15 -7 -3 -2 -2 -1 -1 -0 -0 -0 -0 -0 -0 -7 -15
-78 -26 -6 -108 -3 -3 -2 -2 -0 -3 -20 -1 -49 -5 -75 -9 -2 -2 -0 -10 -10 -6 -16 -0 -0 -0 -0 -0 -0 -0 -0 -0 -21 -54 -94 -5 -1 -1 -2 -5 -1 -0 -0 -0 -0 -0 -0 -8 -16
-25 -5 -68 -71 -1 -1 -1 -1 -1 -6 -24 -5 -43 -2 -10 -1 -13 -0 -1 -12 -7 -0 -41 -15 -0 -0 -0 -0 -0 -0 -0 -0 -1 -10 -44 -24 -37 -46 -15 -1 -1 -2 -0 -1 -0 -0 -0 -15 -14
-19 -85 -49 -142 -22 -6 -2 -2 -2 -9 -16 -30 -4 -6 -1 -0 -0 -0 -3 -7 -16 -3 -48 -41 -0 -0 -0 -0 -0 -0 -0 -0 -0 -2 -0 -4 -41 -81 -39 -5 -1 -2 -0 -0 -0 -0 -0 -4 -5
-9 -2 -15 -3 -19 -45 -4 -16 -5 -11 -39 -4 -34 -52 -38 -0 -1 -0 -17 -38 -21 -4 -11 -21 -4 -0 -0 -0 -0 -0 -0 -0 -1 -3 -1 -6 -11 -15 -0 -15 -9 -3 -1 -0 -0 -0 -1 -2 -12
-26 -183 -24 -5 -7 -0 -3 -14 -6 -4 -24 -20 -8 -68 -35 -1 -0 -0 -28 -11 -34 -17 -13 -16 -2 -0 -0 -0 -0 -0 -0 -0 -3 -3 -3 -6 -2 -0 -4 -5 -8 -0 -0 -0 -0 -0 -0 -0 -3
-119 -100 -39 -5 -2 -0 -6 -4 -1 -5 -20 -0 -6 -26 -38 -17 -0 -10 -27 -28 -29 -3 -15 -0 -1 -1 -1 -0 -0 -1 -0 -0 -0 -0 -0 -13 -33 -19 -7 -4 -0 -0 -1 -2 -0 -0 -0 -1 -7
-96 -47 -7 -10 -0 -1 -0 -2 -10 -1 -12 -66 -153 -100 -79 -0 -0 -15 -12 -27 -1 -15 -24 -2 -2 -11 -5 -1 -6 -0 -2 -0 -0 -1 -23 -13 -5 -27 -9 -2 -14 -6 -0 -0 -0 -0 -0 -7 -12
-9 -0 -0 -2 -36 -9 -2 -0 -2 -17 -16 -16 -56 -207 -182 -12 -0 -2 -13 -43 -30 -31 -45 -1 -19 -13 -27 -21 -15 -0 -21 -12 -8 -9 -28 -25 -13 -86 -69 -37 -27 -11 -0 -0 -4 -13 -16 -26 -45
-2 -0 -0 -0 -0 -19 -10 -13 -1 -5 -3 -2 -72 -102 -162 -4 -0 -1 -39 -18 -18 -72 -1 -22 -66 -62 -21 -32 -4 -2 -30 -5 -13 -7 -19 -15 -25 -19 -24 -37 -29 -22 -15 -14 -21 -32 -37 -86 -89
-0 -0 -1 -0 -0 -0 -21 -13 -12 -9 -11 -16 -9 -6 -2 -1 -2 -4 -10 -39 -74 -8 -29 -55 -14 -15 -44 -16 -14 -6 -2 -13 -8 -26 -22 -29 -21 -7 -17 -24 -28 -33 -52 -104 -116 -24 -84 -94 -71
-0 -0 -0 -0 -0 -0 -8 -1 -9 -5 -6 -2 -3 -1 -0 -1 -3 -18 -1 -18 -1 -15 -30 -28 -22 -13 -8 -2 -13 -24 -47 -33 -33 -32 -6 -16 -21 -13 -9 -53 -44 -27 -35 -74 -49 -34 -3 -14 -16
-0 -0 -0 -0 -0 -0 -0 -189 -16 -32 -2 -1 -2 -0 -0 -2 -0 -0 -2 -8 -10 -13 -13 -31 -37 -38 -4 -8 -32 -25 -34 -42 -39 -24 -11 -12 -12 -17 -31 -39 -59 -20 -133 -241 -105 -54 -36 -10 -33
-0 -2 -1 -2 -0 -0 -0 -106 -179 -73 -11 -0 -3 -3 -1 -1 -0 -0 -6 -4 -16 -15 -13 -21 -21 -14 -3 -20 -104 -44 -26 -50 -39 -28 -14 -27 -36 -6 -12 -31 -34 -24 -41 -87 -126 -23 -31 -36 -46
-4 -0 -4 -0 -0 -0 -0 -0 -2 -4 -4 -1 -5 -3 -3 -2 -1 -3 -1 -1 -40 -15 -31 -35 -38 -33 -9 -8 -23 -37 -70 -33 -42 -28 -55 -28 -53 -29 -13 -15 -26 -13 -29 -27 -76 -145 -26 -21 -24
-1 -16 -2 -0 -0 -0 -0 -0 -0 -1 -20 -6 -13 -2 -12 -6 -12 -9 -2 -8 -12 -34 -34 -42 -25 -32 -27 -65 -9 -42 -106 -28 -43 -7 -17 -50 -18 -19 -2 -7 -12 -11 -11 -25 -37 -47 -43 -21 -30
-0 -0 -0 -0 -0 -0 -0 -0 -0 -0 -0 -16 -16 -12 -4 -11 -3 -11 -21 -17 -1 -23 -43 -14 -60 -31 -40 -13 -5 -1 -71 -57 -23 -19 -13 -62 -3 -29 -16 -2 -1 -7 -15 -25 -34 -10 -5 -80 -72
-0 -0 -0 -0 -2 -0 -0 -0 -1 -0 -0 -0 -24 -5 -3 -6 -35 -11 -19 -31 -17 -14 -19 -19 -15 -37 -30 -8 -13 -3 -12 -61 -65 -38 -86 -36 -13 -19 -1 -86 -3 -4 -88 -33 -24 -26 -25 -126 -173
-0 -0 -0 -0 -0 -0 -0 -0 -0 -2 -0 -0 -0 -0 -4 -1 -11 -27 -11 -15 -36 -30 -12 -17 -8 -10 -5 -5 -47 -12 -21 -11 -10 -32 -139 -110 -47 -11 -14 -12 -13 -12 -4 -18 -46 -39 -13 -94 -185
-0 -0 -0 -0 -0 -0 -0 -0 -3 -4 -2 -3 -2 -4 -2 -9 -2 -24 -17 -29 -28 -56 -12 -11 -9 -7 -4 -3 -39 -31 -37 -18 -8 -18 -71 -53 -41 -15 -14 -10 -3 -16 -30 -76 -29 -29 -26 -29 -61
-0 -0 -0 -0 -0 -0 -0 -0 -0 -11 -8 -5 -0 -21 -7 -1 -1 -5 -26 -35 -30 -19 -16 -10 -14 -5 -7 -4 -11 -5 -15 -27 -7 -5 -45 -36 -42 -11 -15 -4 -14 -15 -69 -114 -26 -29 -27 -17 -14
-0 -0 -0 -0 -0 -0 -0 -1 -2 -9 -5 -0 -2 -15 -12 -2 -2 -4 -7 -24 -22 -6 -24 -8 -16 -12 -10 -1 -7 -2 -4 -22 -30 -5 -20 -34 -35 -17 -19 -7 -34 -11 -10 -104 -172 -137 -5 -7 -22
-0 -0 -0 -0 -16 -20 -0 -3 -12 -0 -0 -32 -40 -3 -5 -12 -0 -8 -3 -20 -19 -15 -37 -13 -23 -15 -3 -3 -0 -2 -2 -24 -36 -25 -40 -37 -28 -1 -9 -5 -17 -7 -8 -40 -89 -32 -9 -10 -18
-0 -0 -0 -0 -2 -1 -9 -1 -5 -0 -0 -13 -2 -1 -3 -11 -4 -7 -4 -5 -10 -14 -11 -19 -26 -12 -1 -1 -11 -3 -3 -26 -24 -40 -42 -27 -5 -3 -24 -4 -5 -6 -19 -21 -16 -15 -21 -103 -100
-0 -0 -1 -0 -0 -2 -1 -14 -6 -4 -1 -0 -3 -3 -3 -1 -2 -4 -10 -2 -8 -7 -21 -18 -26 -11 -4 -0 -4 -2 -2 -11 -25 -40 -65 -61 -24 -3 -32 -20 -6 -8 -19 -33 -34 -23 -178 -0 -0
-0 -0 -0 -0 -0 -4 -0 -7 -24 -63 -17 -6 -3 -26 -14 -0 -3 -2 -2 -3 -3 -5 -5 -10 -21 -15 -6 -0 -2 -0 -1 -2 -20 -45 -52 -54 -38 -38 -35 -24 -15 -4 -3 -2 -18 -36 -69 -109 -243
-0 -9 -0 -1 -0 -0 -1 -15 -34 -18 -9 -8 -7 -18 -31 -24 -11 -1 -2 -7 -8 -7 -2 -3 -15 -7 -0 -0 -2 -1 -1 -0 -1 -16 -50 -20 -32 -144 -58 -27 -19 -14 -10 -15 -15 -23 -8 -26 -18
-0 -0 -0 -3 -1 -0 -7 -15 -82 -15 -150 -2 -12 -34 -55 -52 -49 -16 -2 -5 -8 -10 -8 -10 -8 -5 -1 -0 -2 -0 -0 -1 -0 -15 -48 -16 -28 -134 -247 -227 -25 -12 -9 -8 -12 -13 -4 -19 -10
Wind_Speed
14 16 11 10 1 4 7 7 15 13 5 15 10 14 17 9 7 10 21 18 22 19 17 16 14 12 13 13 15 16 15 17 16 16 14 14 12 12 12 12 11 10 11 11 10 9 9 8 7
13 16 6 5 2 4 2 12 9 11 11 10 8 18 15 16 20 22 18 24 22 19 17 16 14 13 13 14 14 15 17 17 17 17 14 12 11 10 10 9 9 9 9 10 9 8 7 6 6
14 11 6 4 2 4 4 6 11 9 7 13 7 14 14 17 24 17 22 23 21 17 16 16 15 13 14 14 15 16 16 17 17 14 13 11 9 7 7 7 6 6 6 7 7 6 6 5 5
8 7 7 6 10 11 8 5 7 14 12 15 12 9 8 18 16 21 26 24 19 20 19 15 15 14 14 14 14 16 16 17 17 16 14 10 9 3 4 5 7 5 5 6 6 5 6 5 5
12 4 8 9 11 9 5 5 3 6 7 14 18 14 12 10 26 22 23 20 18 19 18 16 14 14 13 13 15 15 16 17 17 17 17 15 8 1 3 3 6 6 6 5 5 6 5 5 5
4 6 3 5 9 4 3 4 3 1 3 7 17 19 12 9 15 20 22 21 19 18 18 16 14 13 13 14 13 14 15 16 17 17 18 18 16 11 13 6 4 6 7 6 6 6 6 6 6
6 7 8 9 10 7 3 2 9 2 7 5 8 5 5 13 17 18 14 25 21 18 18 14 13 13 13 12 14 14 14 14 15 16 17 17 17 18 19 11 9 8 8 6 7 7 7 7 7
6 5 1 2 10 6 5 4 2 5 1 7 15 8 4 14 17 19 12 16 20 18 17 15 11 12 11 10 13 14 15 14 13 14 16 17 13 13 18 16 13 11 9 8 8 8 8 7 7
8 2 5 10 7 6 4 3 5 5 5 4 8 4 17 19 18 23 15 17 10 13 13 15 13 11 11 11 10 12 13 13 12 12 13 13 7 11 15 15 14 11 10 9 10 9 7 7 6
8 4 7 8 11 6 4 5 8 5 6 9 13 15 10 18 17 22 21 17 10 15 14 12 14 13 11 9 11 9 9 8 8 8 7 7 7 6 6 12 15 13 12 11 10 10 8 9 5
3 6 6 8 7 5 2 4 4 10 2 7 14 8 5 12 14 12 17 20 19 17 11 14 7 10 10 9 7 5 4 3 5 7 7 7 3 5 8 6 5 5 9 5 8 7 7 10 4
9 3 2 3 4 3 4 3 3 6 4 8 22 22 22 15 13 15 16 18 17 9 12 10 12 6 8 7 8 8 8 7 6 8 7 3 3 4 3 2 4 5 5 2 7 6 9 5 6
7 3 2 4 1 1 2 2 5 3 5 1 20 21 14 12 12 12 19 16 21 16 14 13 12 9 10 6 2 6 4 7 7 7 8 5 5 3 4 1 0 3 2 4 7 6 9 11 8
3 6 2 4 4 2 2 2 4 6 5 5 5 8 13 9 12 14 15 18 17 12 14 15 13 8 7 5 1 4 4 5 6 6 7 8 6 4 3 2 2 4 4 3 5 2 0 2 4
7 14 8 6 3 2 4 15 19 13 6 8 9 7 10 10 8 9 11 15 14 14 15 14 11 9 8 6 3 3 5 7 6 5 7 5 3 5 4 2 4 3 2 3 3 2 5 4 2
15 7 7 9 4 1 7 8 25 24 7 9 12 11 8 9 14 9 8 16 15 14 16 15 9 10 10 8 6 5 4 4 6 6 7 8 3 1 4 4 5 4 6 4 3 2 7 5 6
13 9 12 3 4 4 8 8 3 10 11 9 13 12 12 13 11 12 13 10 16 16 14 14 15 16 14 10 6 5 3 3 2 3 6 8 7 5 5 4 5 3 4 4 6 6 7 4 6
1 8 12 6 5 6 11 11 11 7 12 12 8 11 14 16 17 15 13 13 17 16 17 14 12 15 12 7 6 4 1 4 3 2 3 7 6 7 5 4 4 5 1 3 5 6 7 3 1
10 11 11 10 6 5 12 14 14 8 10 13 10 9 15 16 19 19 15 13 11 12 17 15 11 8 9 8 7 7 7 3 3 1 4 6 5 7 6 1 2 2 2 3 5 2 0 4 3
11 12 13 12 5 9 16 18 14 12 5 6 12 13 10 19 16 18 16 17 11 13 14 12 12 16 11 8 8 6 7 4 5 3 3 6 8 8 5 4 4 5 3 3 3 3 2 3 3
10 13 12 14 10 14 19 13 11 6 9 5 7 9 12 13 19 18 19 17 15 13 11 13 10 11 8 6 6 5 5 3 2 2 3 4 10 8 6 6 4 4 2 1 3 2 4 4 3
14 13 11 11 12 12 14 13 15 14 4 12 11 3 12 12 15 19 22 18 17 14 15 16 13 11 9 7 7 9 7 5 5 6 5 6 15 10 9 7 5 3 3 4 3 4 4 3 6
13 12 11 9 13 17 19 11 13 12 9 6 5 7 5 8 15 20 19 20 18 16 16 16 15 12 8 8 6 4 4 5 6 6 11 11 12 10 9 8 5 4 6 7 1 4 4 3 1
6 12 13 15 15 14 11 12 1 7 5 5 3 10 2 3 12 12 21 19 18 15 15 16 15 12 11 9 8 7 9 7 6 7 8 8 8 8 7 9 6 5 6 7 2 4 4 1 2
10 12 10 12 9 8 3 12 6 8 10 2 2 9 8 3 10 11 15 20 17 17 16 16 16 14 12 11 9 8 7 8 7 5 6 10 9 8 8 7 8 5 4 9 7 6 2 2 1
11 14 10 14 14 8 14 8 5 3 8 3 3 9 8 4 10 11 11 11 14 18 16 17 16 15 13 11 10 7 7 6 7 7 5 10 9 9 10 7 7 8 8 7 5 4 2 5 5
12 14 12 13 15 13 10 14 18 20 8 4 12 12 8 4 9 10 12 13 15 12 15 14 16 14 12 11 9 7 8 9 8 8 9 10 7 7 10 9 7 8 9 8 7 4 5 3 4
14 14 13 9 10 13 10 10 9 8 4 7 14 9 11 1 1 11 12 11 12 13 13 13 16 14 13 12 10 9 9 10 10 13 13 15 7 7 9 9 8 6 6 5 7 6 9 8 6
12 14 15 11 11 10 12 4 9 15 5 6 15 12 13 12 10 4 8 11 10 12 12 13 15 14 12 12 11 10 10 11 10 9 10 7 7 7 6 5 8 8 7 6 5 4 5 9 5
18 19 12 12 13 11 9 10 11 10 20 16 17 14 13 14 17 11 7 12 13 11 12 13 12 14 11 10 9 10 11 11 11 9 10 7 8 10 9 12 10 7 6 7 7 6 4 7 6
Wind_Direction
271 246 243 260 331 79 53 57 47 76 1 79 52 77 78 136 88 125 142 142 136 141 139 152 150 148 148 139 137 137 133 128 126 121 122 123 118 117 116 121 123 130 127 120 114 111 106 102 100
287 286 269 277 66 358 237 51 139 72 84 92 76 85 60 86 100 117 142 138 139 136 149 140 146 148 143 144 144 141 141 137 129 129 128 126 130 125 132 131 134 132 132 131 129 125 118 116 111
263 276 267 44 199 80 65 60 47 83 60 61 48 67 83 105 124 134 138 134 130 146 136 130 141 144 142 139 140 144 146 146 144 142 132 122 127 139 137 151 142 138 146 146 150 146 148 144 130
255 215 245 153 37 74 47 127 91 43 1 72 82 57 76 121 117 130 132 134 147 142 125 139 140 142 139 137 137 147 150 150 145 148 152 141 110 75 191 175 152 159 168 178 184 199 180 169 156
238 273 8 341 63 39 85 59 74 121 3 94 112 122 93 110 135 141 130 134 143 127 131 142 142 145 143 142 139 145 152 156 156 162 163 152 158 30 270 254 202 193 199 188 184 186 189 181 180
285 116 134 262 55 50 100 93 146 302 266 317 109 74 88 113 124 147 134 143 139 135 146 143 144 150 152 151 149 148 152 159 166 172 164 155 166 206 226 242 251 214 214 205 204 199 197 189 191
306 331 37 58 75 347 359 329 55 298 95 294 43 110 188 140 150 140 141 127 141 143 139 144 157 156 156 155 156 155 154 157 161 168 163 166 176 198 215 231 235 225 218 202 200 193 195 185 187
34 25 352 160 56 14 37 285 229 77 103 176 132 134 189 145 158 142 142 132 144 141 141 149 153 158 155 164 164 160 161 157 160 163 166 171 199 197 210 226 229 223 213 203 200 192 194 197 205
84 171 344 31 47 46 112 105 297 144 171 170 72 99 178 150 163 128 104 119 128 125 152 146 160 165 166 166 161 166 162 164 172 166 173 181 204 199 199 202 208 203 201 194 196 192 202 209 219
126 220 16 29 30 25 66 117 215 178 48 1 53 16 347 165 161 140 141 133 150 147 160 161 165 182 161 171 153 162 166 175 184 166 185 213 217 159 239 171 176 191 197 197 199 196 203 225 220
313 42 354 46 24 9 64 254 209 114 150 206 156 158 248 215 161 170 161 153 158 164 172 166 183 140 170 141 169 164 181 184 149 163 191 222 232 146 228 155 174 186 202 205 202 194 208 213 200
103 18 28 13 56 295 348 345 297 36 75 40 146 174 199 190 184 181 158 171 142 143 189 160 129 155 163 158 174 177 192 172 166 170 198 229 232 206 96 118 162 211 155 241 200 203 207 196 213
31 350 146 142 262 11 1 297 340 287 142 115 153 178 172 188 184 185 163 156 161 179 143 160 166 179 143 187 201 177 161 158 162 162 178 211 198 198 130 214 348 89 304 175 248 226 152 224 207
319 267 66 70 44 260 298 28 289 127 160 160 148 170 161 200 194 171 189 166 160 148 139 149 162 178 157 167 115 172 224 152 160 178 169 187 238 134 155 169 230 189 199 170 254 356 80 197 271
272 267 181 110 18 311 323 44 307 279 183 176 160 192 164 179 184 188 164 156 160 172 147 156 153 162 162 175 192 138 242 145 163 171 164 170 240 143 162 173 239 222 171 284 320 255 257 211 309
233 235 274 122 71 299 269 194 215 239 200 210 173 183 192 175 183 184 201 153 165 179 161 165 161 170 168 167 152 233 174 234 159 177 155 176 179 65 197 182 235 212 174 200 4 234 240 209 200
226 252 236 61 160 358 318 300 243 195 188 217 183 188 184 175 209 168 181 188 161 184 160 167 178 187 180 160 169 208 105 298 170 188 149 174 182 170 244 222 189 250 248 199 149 237 230 191 196
42 249 354 343 1 13 304 313 316 282 196 195 239 195 179 188 191 175 186 181 174 158 162 178 175 176 152 142 167 196 186 263 247 172 188 160 175 174 220 243 200 213 260 282 188 245 212 208 110
344 305 295 303 322 304 309 285 281 276 262 196 198 240 193 195 188 168 178 168 176 147 165 158 164 166 149 157 178 192 202 215 225 149 61 56 214 174 211 75 261 220 244 245 258 220 251 12 63
301 295 286 281 288 328 293 286 270 263 197 269 195 199 233 189 163 165 175 163 172 162 153 149 143 163 163 165 193 185 193 203 220 163 110 137 230 202 189 179 211 150 189 244 269 255 40 199 124
271 256 281 285 335 284 281 304 294 243 139 215 250 225 213 205 175 169 171 173 170 149 156 156 167 159 171 204 165 165 136 98 130 218 122 242 268 209 172 204 181 190 129 235 272 264 231 104 328
281 289 322 328 300 297 311 286 277 129 216 196 236 208 205 188 175 171 172 173 178 160 163 160 164 161 177 198 158 177 177 175 184 189 149 195 253 216 182 200 188 162 91 356 253 270 284 169 164
276 296 287 277 282 283 278 266 146 156 154 25 25 90 301 176 175 173 169 176 182 170 167 158 164 165 185 189 174 179 189 208 182 170 165 206 240 207 190 171 144 182 148 214 229 284 233 230 238
308 298 289 272 261 267 287 275 40 121 145 78 136 86 351 91 157 174 168 166 175 181 166 158 161 164 178 187 189 187 194 186 200 174 172 207 214 200 190 152 165 196 138 138 138 290 240 288 293
236 251 268 268 205 269 272 300 26 86 95 84 53 139 131 148 150 163 166 170 176 163 176 152 160 162 184 178 192 206 181 199 161 169 178 205 203 194 176 191 165 180 168 158 183 217 253 250 277
292 273 259 295 306 320 179 229 172 83 86 106 94 91 101 157 138 165 175 167 161 170 171 155 162 165 177 183 182 203 164 137 167 169 217 224 187 195 169 188 176 163 175 160 173 173 168 30 328
287 277 280 279 279 276 282 52 13 8 131 67 73 35 124 160 150 166 170 175 163 176 158 157 160 163 171 197 175 179 166 154 154 192 228 244 208 168 165 184 179 176 179 173 163 170 132 174 229
257 286 304 298 286 284 296 306 142 228 56 46 76 36 10 38 234 159 171 169 172 167 158 164 156 164 177 195 174 179 177 167 172 174 216 239 144 149 159 183 187 184 193 177 170 179 166 190 230
270 219 249 279 289 289 292 63 205 194 226 136 85 52 24 7 347 172 171 149 152 159 171 174 161 167 185 197 177 178 174 175 176 190 217 233 160 100 90 215 197 191 191 185 202 219 246 199 227
301 294 254 240 251 268 296 296 105 104 15 62 76 48 33 2 1 333 169 159 155 163 178 179 171 167 179 195 174 183 176 176 180 188 208 222 149 121 100 276 236 206 195 202 199 230 242 202 225